Location: Chevoux
(46.3801°N, 4.9476°E)
Time: 12:40:01
(UTC+00:00)

Cosmos 1844 Rocket - Pass Details

Date: 28 January 2021
Orbit: 826 x 843 km, 71.0° (Epoch: 06 March)

Event Time Altitude Azimuth Distance (km) Brightness Sun altitude
Rises 17:33:39 0° 227° (SW) 3,389 7.1 -9.7°
Reaches altitude 10° 17:36:13 10° 234° (SW) 2,456 6.4 -10.1°
Maximum altitude 17:41:32 42° 305° (NW) 1,190 3.9 -11.0°
Drops below altitude 10° 17:46:53 10° 16° (NNE) 2,461 4.8 -11.9°
Sets 17:49:29 0° 23° (NNE) 3,396 5.5 -12.3°
